TimeCST,TemperatureF,Dew PointF,Humidity,Sea Level PressureIn,VisibilityMPH,Wind Direction,Wind SpeedMPH,Gust SpeedMPH,PrecipitationIn,Events,Conditions,WindDirDegrees,DateUTC
12:56 AM,16.0,12.9,88,29.89,2.5,NW,18.4,23.0,0.00,Snow,Light Snow,320,2014-01-15 06:56:00
1:33 AM,15.8,12.2,86,29.83,3.0,NW,17.3,-,0.00,Snow,Light Snow,320,2014-01-15 07:33:00
1:56 AM,15.1,10.9,84,29.92,7.0,NW,17.3,21.9,0.00,Snow,Light Snow,320,2014-01-15 07:56:00
2:53 AM,15.8,12.2,86,29.87,2.5,NW,16.1,-,0.00,Snow,Light Snow,320,2014-01-15 08:53:00
2:56 AM,16.0,12.0,84,29.95,4.0,NW,17.3,-,0.00,Snow,Light Snow,320,2014-01-15 08:56:00
3:11 AM,15.8,12.2,86,29.88,5.0,NNW,16.1,-,0.00,Snow,Light Snow,330,2014-01-15 09:11:00
3:36 AM,15.8,10.4,79,29.89,9.0,NNW,15.0,-,0.00,Snow,Light Snow,330,2014-01-15 09:36:00
3:56 AM,16.0,10.0,77,29.97,10.0,NNW,15.0,-,0.00,,Overcast,330,2014-01-15 09:56:00
4:56 AM,14.0,8.1,77,30.01,10.0,NW,11.5,-,N/A,,Overcast,320,2014-01-15 10:56:00
5:56 AM,14.0,9.0,80,30.02,9.0,NNW,9.2,-,0.00,Snow,Light Snow,330,2014-01-15 11:56:00
6:56 AM,16.0,9.0,74,30.04,10.0,NW,6.9,-,0.00,,Overcast,310,2014-01-15 12:56:00
7:56 AM,15.1,9.0,77,30.06,10.0,NW,6.9,-,N/A,,Overcast,310,2014-01-15 13:56:00
8:56 AM,17.1,10.9,77,30.07,9.0,NW,10.4,-,0.00,Snow,Light Snow,310,2014-01-15 14:56:00
9:56 AM,18.0,10.9,74,30.07,9.0,NW,8.1,-,0.00,Snow,Light Snow,310,2014-01-15 15:56:00
10:56 AM,19.0,10.0,68,30.07,10.0,NW,10.4,-,0.00,,Overcast,310,2014-01-15 16:56:00
11:56 AM,19.9,10.0,65,30.04,9.0,West,10.4,-,0.00,Snow,Light Snow,280,2014-01-15 17:56:00
12:56 PM,18.0,10.9,74,30.05,5.0,West,12.7,-,0.00,Snow,Light Snow,260,2014-01-15 18:56:00
1:56 PM,18.0,10.0,71,30.02,9.0,WSW,8.1,-,0.00,Snow,Light Snow,250,2014-01-15 19:56:00
2:56 PM,16.0,9.0,74,30.03,9.0,WSW,9.2,-,0.00,Snow,Light Snow,250,2014-01-15 20:56:00
3:56 PM,14.0,8.1,77,30.01,9.0,WSW,9.2,-,0.00,Snow,Light Snow,250,2014-01-15 21:56:00
4:36 PM,12.2,6.8,79,29.94,9.0,WSW,9.2,-,0.00,Snow,Light Snow,250,2014-01-15 22:36:00
4:51 PM,12.2,6.8,79,29.93,9.0,WSW,11.5,-,0.00,Snow,Light Snow,250,2014-01-15 22:51:00
4:56 PM,12.0,7.0,80,30.01,9.0,WSW,10.4,-,0.00,Snow,Light Snow,240,2014-01-15 22:56:00
5:52 PM,10.4,6.8,85,29.94,9.0,WSW,11.5,-,0.00,Snow,Light Snow,250,2014-01-15 23:52:00
5:56 PM,10.9,7.0,84,30.02,9.0,WSW,10.4,-,0.00,Snow,Light Snow,250,2014-01-15 23:56:00
6:53 PM,10.4,6.8,85,29.87,10.0,SSW,10.4,-,0.00,,Partly Cloudy,210,2014-01-16 00:53:00
6:56 PM,10.9,7.0,84,29.95,10.0,SSW,9.2,-,0.00,,Partly Cloudy,200,2014-01-16 00:56:00
7:56 PM,10.9,7.0,84,29.92,10.0,SSW,10.4,-,N/A,,Mostly Cloudy,200,2014-01-16 01:56:00
8:56 PM,12.0,7.0,80,29.87,10.0,SSW,11.5,-,N/A,,Partly Cloudy,200,2014-01-16 02:56:00
9:56 PM,12.0,6.1,77,29.83,10.0,SW,13.8,-,N/A,,Overcast,220,2014-01-16 03:56:00
10:56 PM,14.0,8.1,77,29.81,9.0,SSW,12.7,-,0.00,Snow,Light Snow,210,2014-01-16 04:56:00
11:56 PM,15.1,10.0,80,29.76,5.0,SSW,15.0,-,0.00,Snow,Light Snow,200,2014-01-16 05:56:00